This is the latest recevied weather packets stored in our database for station/object W8XLR-2. If no packets are shown the sender has not sent any weather packets the latest 1 day(s).
| Time | Temp. | Humidity | Pressure | Rain* | Wind** | Luminosity | Snow |
|---|---|---|---|---|---|---|---|
| 1778021808 | 16.11° C | 91% | 1010.4 hPa | 0 mm | 0 m/s | - | - |
| 1778021321 | 16.11° C | 91% | 1010.4 hPa | 0 mm | 0 m/s | - | - |
| 1778021209 | 16.11° C | 91% | 1010.4 hPa | 0 mm | 0 m/s | - | - |
| 1778020608 | 16.11° C | 91% | 1010.4 hPa | 0 mm | 0 m/s | - | - |
| 1778020008 | 16.11° C | 91% | 1010.5 hPa | 0 mm | 0 m/s | - | - |
| 1778019408 | 16.11° C | 91% | 1010.5 hPa | 0 mm | 0 m/s | - | - |
| 1778018812 | 16.11° C | 91% | 1010.3 hPa | 0.25 mm | 0.45 m/s, 269° | - | - |
| 1778018209 | 16.11° C | 90% | 1010.2 hPa | 0.76 mm | 0.45 m/s, 269° | - | - |
| 1778017625 | 16.11° C | 90% | 1010.2 hPa | 0.76 mm | 0.45 m/s, 269° | - | - |
| 1778017010 | 16.11° C | 89% | 1010.3 hPa | 0.76 mm | 0 m/s | - | - |
| 1778016412 | 16.11° C | 86% | 1010.3 hPa | 0.76 mm | 0.89 m/s, 272° | - | - |
| 1778015809 | 16.11° C | 86% | 1010.3 hPa | 0.76 mm | 0.89 m/s, 272° | - | - |
| 1778015208 | 18.33° C | 76% | 1010.5 hPa | 0.51 mm | 0.89 m/s, 280° | - | - |
| 1778014608 | 19.44° C | 69% | 1010 hPa | 0 mm | 0.45 m/s, 274° | - | - |
| 1778014017 | 19.44° C | 69% | 1010 hPa | 0 mm | 0.45 m/s, 274° | - | - |
| 1778013410 | 20° C | 64% | 1009.9 hPa | 0 mm | 0.89 m/s, 271° | - | - |
| 1778012808 | 20° C | 63% | 1009.9 hPa | 0 mm | 0.89 m/s, 273° | - | - |
| 1778012209 | 20° C | 63% | 1009.9 hPa | 0 mm | 0.89 m/s, 273° | - | - |
| 1778011608 | 20.56° C | 63% | 1009.9 hPa | 0 mm | 0.89 m/s, 272° | - | - |
| 1778011015 | 20° C | 63% | 1010.2 hPa | 0 mm | 1.34 m/s, 269° | - | - |
| 1778010408 | 20° C | 63% | 1010.2 hPa | 0 mm | 1.34 m/s, 269° | - | - |
| 1778009810 | 20° C | 63% | 1010.6 hPa | 0 mm | 0.89 m/s, 270° | - | - |
| 1778009214 | 20° C | 62% | 1010.6 hPa | 0 mm | 1.34 m/s, 262° | - | - |
| 1778008607 | 20° C | 62% | 1010.6 hPa | 0 mm | 1.34 m/s, 262° | - | - |
| 1778008015 | 20° C | 61% | 1010.7 hPa | 0 mm | 1.79 m/s, 269° | - | - |
* Rain latest hour (hover to see other rain measurements)
** Current wind speed in m/s (hover to see current wind gust speed)